Temp
71 71 72 73 71 69 72 71 70 69 69 67 64 63 62 64 63 64 67 67 67 67 65 63 63 64 62 61 64 62 61 59 60 58 58 59 60 60 61 61 63 62 63
68 70 70 69 71 69 71 69 70 68 67 67 64 64 63 63 63 64 64 66 66 66 67 63 62 62 61 61 62 62 59 59 60 57 56 54 57 58 60 60 62 61 62
69 70 69 67 68 70 70 70 69 67 66 65 64 62 63 61 61 61 62 64 65 65 65 63 63 62 61 61 62 61 60 58 59 60 56 52 52 55 57 59 59 59 60
65 67 68 64 69 70 69 69 68 67 66 64 62 61 59 58 59 61 61 62 64 64 64 63 65 65 63 61 61 61 60 59 58 58 58 55 57 53 51 57 58 59 60
64 65 62 65 65 66 65 66 65 66 64 63 62 60 59 59 60 60 61 61 62 65 63 63 64 65 63 62 61 60 59 60 58 58 56 56 55 54 54 51 54 57 58
64 65 63 64 62 63 63 64 63 62 63 62 62 60 60 59 58 59 58 58 59 61 61 63 61 61 63 62 62 61 60 59 58 58 56 55 54 53 53 52 53 54 55
61 60 59 61 62 61 61 63 62 61 62 62 61 60 59 59 59 58 57 57 57 58 62 61 60 61 64 62 60 61 61 58 58 59 57 57 57 57 55 54 53 53 54
60 58 60 58 60 60 60 60 60 59 59 58 58 58 58 58 58 58 57 57 58 59 63 62 62 64 61 59 59 59 60 60 59 59 57 57 57 57 57 55 53 51 52
57 57 59 59 59 58 58 60 60 60 58 58 58 58 57 58 58 58 59 59 62 63 63 63 63 63 62 60 59 58 58 58 57 58 57 58 56 57 57 57 56 53 49
54 57 58 58 59 60 61 62 62 61 61 61 62 63 63 62 63 62 61 61 60 61 62 62 62 63 63 62 59 58 58 58 58 58 58 57 56 56 56 56 56 56 53
53 56 56 58 59 60 60 60 61 61 60 60 60 60 60 60 60 60 59 60 59 60 61 60 61 61 61 62 60 59 59 59 59 58 57 56 56 55 55 56 55 53 53
54 56 57 58 58 58 59 59 60 60 59 60 59 59 59 59 54 54 57 59 57 57 57 58 59 60 61 61 60 58 59 59 58 57 57 55 55 55 56 54 53 52 52
56 58 57 58 58 58 59 59 59 59 60 61 59 59 58 57 56 56 56 57 56 55 55 56 56 58 59 60 59 58 58 57 56 56 56 54 54 53 53 53 52 51 51
56 58 57 58 59 60 60 59 59 60 59 55 57 56 56 56 55 54 54 55 55 55 55 56 56 57 57 57 56 55 54 54 53 53 54 54 54 53 53 52 50 50 49
55 57 57 58 59 58 59 60 60 60 59 57 56 55 56 56 53 52 54 54 54 54 55 54 54 55 55 55 54 54 53 52 52 52 53 53 55 56 54 51 49 49 47
53 56 56 58 60 59 58 58 59 58 59 57 55 56 55 54 53 53 53 54 54 54 54 54 54 54 55 56 55 54 52 52 51 50 51 54 56 56 56 55 54 51 48
52 53 55 57 60 61 61 58 58 59 57 55 56 55 55 53 53 53 53 52 52 53 53 53 54 53 54 56 55 54 51 50 50 50 50 51 53 52 51 53 54 54 54
50 52 54 55 57 61 61 60 60 58 56 54 55 55 54 52 52 51 51 51 51 51 51 52 53 53 54 55 55 53 51 50 50 50 51 50 47 47 45 44 43 42 42
50 51 57 58 56 61 61 60 59 58 56 54 55 54 53 51 51 50 50 50 50 50 50 51 51 52 52 55 55 53 50 49 49 49 48 46 45 52 50 43 41 40 42
53 53 57 59 57 59 62 59 57 56 55 55 54 53 52 51 50 50 49 49 50 50 51 51 52 53 53 55 54 52 47 44 44 44 45 54 48 53 50 41 39 37 38
56 57 57 56 58 59 60 58 57 55 56 55 54 52 51 51 51 51 50 50 51 51 51 51 52 53 54 54 54 52 46 44 43 42 41 47 53 53 51 47 40 40 40
56 58 55 56 57 60 59 57 56 56 55 54 52 51 51 52 52 51 51 51 52 50 48 49 49 50 54 55 54 53 50 48 43 41 41 47 51 52 51 48 52 50 44
55 57 55 53 56 58 60 56 56 55 53 52 50 50 52 52 52 51 51 51 51 48 48 47 46 46 45 51 54 53 51 50 43 44 49 50 50 50 48 49 49 45 38
54 55 55 53 53 57 60 58 56 55 53 51 50 51 51 51 53 53 54 51 49 46 46 45 41 40 41 42 44 46 47 50 47 47 43 45 46 47 44 40 39 38 36
53 54 54 53 54 56 58 57 56 55 52 52 51 52 52 52 52 51 52 51 48 48 44 43 43 41 39 40 45 43 42 40 44 40 38 36 35 35 34 34 35 35 34
53 52 53 53 53 55 55 55 55 55 53 52 52 53 53 52 49 48 47 51 50 51 49 49 46 45 48 50 50 49 48 49 48 39 35 33 33 32 32 32 31 32 34
MSLP
1004.58 1004.33 1004.46 1004.36 1004.72 1005.57 1006.35 1007.24 1008.02 1008.98 1009.66 1010.42 1011.25 1011.97 1012.22 1012.50 1012.82 1012.96 1012.93 1013.14 1013.43 1013.68 1014.00 1014.45 1014.84 1014.93 1015.65 1016.17 1016.41 1017.01 1017.43 1018.18 1018.28 1018.90 1019.45 1019.54 1019.49 1019.36 1019.37 1019.42 1019.53 1019.93 1020.12
1004.26 1004.10 1004.07 1004.57 1004.51 1005.18 1005.82 1006.95 1007.77 1008.63 1009.36 1010.03 1010.82 1011.61 1012.17 1012.48 1012.60 1012.83 1012.91 1013.11 1013.34 1013.68 1013.84 1014.54 1014.93 1015.30 1015.76 1016.20 1016.56 1016.79 1017.51 1018.01 1018.30 1018.82 1019.46 1019.99 1020.28 1019.84 1019.94 1019.89 1020.00 1020.30 1020.44
1003.72 1003.68 1003.89 1004.25 1004.43 1004.85 1005.48 1006.27 1007.17 1008.13 1009.09 1009.74 1010.68 1011.55 1012.14 1012.52 1012.92 1013.14 1013.28 1013.22 1013.19 1013.54 1013.88 1014.36 1014.85 1015.26 1015.67 1016.24 1016.46 1016.71 1017.11 1017.78 1018.44 1018.51 1018.96 1019.79 1020.06 1019.98 1020.39 1020.45 1020.56 1020.61 1020.76
1003.33 1003.51 1003.65 1004.00 1004.33 1004.65 1005.23 1006.00 1006.76 1007.76 1008.74 1009.57 1010.65 1011.48 1012.12 1012.77 1012.83 1012.86 1012.96 1013.06 1013.06 1013.46 1013.82 1014.19 1014.47 1014.98 1015.45 1015.97 1016.39 1016.77 1017.04 1017.37 1018.09 1018.73 1018.81 1018.89 1019.01 1019.66 1020.52 1020.54 1020.60 1020.73 1020.74
1003.56 1003.54 1003.65 1003.59 1004.51 1004.95 1005.59 1006.36 1007.09 1007.87 1008.46 1009.42 1010.41 1011.35 1012.07 1012.34 1012.36 1012.57 1012.94 1013.18 1013.16 1013.20 1013.66 1014.02 1014.26 1014.81 1015.27 1015.71 1016.13 1016.65 1017.04 1017.21 1017.73 1018.13 1018.73 1019.05 1019.18 1019.46 1019.91 1020.49 1020.61 1020.73 1020.84
1003.73 1004.07 1004.44 1004.64 1004.87 1005.51 1006.19 1006.87 1007.62 1008.53 1009.04 1009.67 1010.49 1011.30 1011.87 1012.28 1012.52 1012.76 1013.27 1013.51 1013.38 1013.56 1013.88 1014.10 1014.48 1014.74 1015.06 1015.42 1015.90 1016.30 1016.74 1017.18 1017.44 1017.75 1018.16 1018.37 1018.76 1019.12 1019.44 1020.05 1020.27 1020.59 1020.76
1004.42 1004.62 1005.19 1005.46 1006.06 1006.48 1007.00 1007.65 1008.22 1009.26 1009.67 1010.26 1010.76 1011.39 1011.82 1012.24 1012.46 1012.91 1013.22 1013.56 1013.75 1013.92 1013.97 1014.39 1014.62 1014.71 1014.74 1015.16 1015.69 1016.21 1016.58 1017.06 1017.39 1017.70 1018.09 1018.42 1018.53 1018.59 1018.96 1019.49 1020.09 1020.54 1020.85
1005.22 1005.71 1005.70 1006.19 1006.71 1007.16 1007.49 1008.10 1008.82 1009.63 1010.13 1010.77 1011.28 1011.69 1011.93 1012.29 1012.54 1012.90 1013.21 1013.49 1013.66 1013.75 1013.98 1014.39 1014.50 1014.45 1014.65 1015.14 1015.70 1016.14 1016.53 1016.96 1017.29 1017.54 1017.99 1018.34 1018.50 1018.57 1018.95 1019.28 1019.79 1020.51 1020.80
1006.09 1006.50 1006.80 1006.73 1007.15 1007.67 1008.13 1008.57 1009.39 1010.03 1010.58 1011.13 1011.49 1011.92 1012.14 1012.38 1012.64 1013.00 1013.24 1013.45 1013.54 1013.69 1013.97 1014.31 1014.53 1014.61 1014.81 1015.15 1015.61 1016.07 1016.57 1016.86 1017.08 1017.22 1017.55 1018.12 1018.32 1018.43 1018.73 1019.04 1019.47 1019.94 1020.68
1007.20 1006.93 1007.28 1007.61 1007.64 1008.14 1008.40 1008.87 1009.71 1010.22 1010.70 1011.21 1011.81 1012.10 1012.12 1012.38 1012.62 1013.04 1013.43 1013.67 1013.89 1013.94 1014.13 1014.34 1014.50 1014.58 1014.82 1015.22 1015.54 1015.90 1016.31 1016.67 1016.90 1017.21 1017.55 1017.91 1018.27 1018.62 1018.66 1019.00 1019.46 1019.82 1020.22
1007.80 1007.69 1008.18 1007.51 1007.94 1008.62 1008.72 1009.47 1010.06 1010.55 1011.10 1011.65 1012.13 1012.33 1012.53 1012.94 1013.13 1013.49 1013.71 1013.88 1014.04 1014.18 1014.39 1014.51 1014.55 1014.65 1014.86 1015.09 1015.34 1015.63 1015.90 1016.30 1016.63 1016.97 1017.43 1017.91 1018.18 1018.47 1018.72 1018.86 1019.45 1020.05 1020.50
1008.76 1008.15 1007.90 1008.06 1008.53 1008.67 1009.19 1009.87 1010.45 1010.88 1011.34 1011.77 1012.26 1012.48 1012.79 1013.25 1013.68 1013.95 1014.22 1014.24 1014.42 1014.53 1014.66 1014.66 1014.68 1014.76 1014.80 1014.95 1015.21 1015.52 1015.70 1016.03 1016.53 1016.94 1017.33 1017.62 1017.90 1018.21 1018.49 1018.87 1019.69 1020.17 1020.69
1009.29 1008.57 1008.23 1008.58 1008.80 1008.85 1009.46 1010.02 1010.59 1011.06 1011.44 1011.81 1012.41 1012.73 1013.18 1013.73 1014.16 1014.41 1014.59 1014.64 1014.65 1014.71 1014.70 1014.71 1014.75 1014.80 1014.88 1014.98 1015.22 1015.61 1015.89 1016.38 1016.75 1016.95 1017.10 1017.60 1017.96 1018.26 1018.53 1019.23 1019.90 1020.46 1021.00
1009.12 1008.45 1008.43 1008.62 1008.70 1009.06 1009.50 1010.12 1010.64 1011.09 1011.54 1012.17 1012.73 1013.08 1013.56 1014.01 1014.46 1014.82 1014.95 1014.90 1014.91 1014.80 1014.72 1014.70 1014.77 1014.83 1014.90 1015.14 1015.45 1015.96 1016.49 1016.91 1017.27 1017.56 1017.65 1017.93 1018.23 1018.57 1018.99 1019.63 1020.28 1020.79 1021.45
1009.45 1008.47 1008.50 1008.52 1008.47 1008.96 1009.50 1010.17 1010.64 1011.17 1011.70 1012.39 1012.90 1013.28 1013.68 1014.20 1014.69 1014.95 1015.05 1015.19 1014.94 1014.84 1014.86 1014.89 1014.98 1014.98 1015.28 1015.61 1015.89 1016.46 1017.01 1017.42 1017.83 1018.24 1018.36 1018.38 1018.64 1018.98 1019.36 1019.96 1020.61 1020.93 1021.44
1009.59 1008.29 1008.29 1008.23 1008.33 1008.88 1009.41 1010.09 1010.52 1011.30 1011.79 1012.41 1012.95 1013.46 1013.92 1014.51 1014.85 1015.10 1015.32 1015.32 1015.14 1015.32 1015.32 1015.41 1015.38 1015.51 1015.89 1016.20 1016.58 1017.06 1017.58 1018.13 1018.50 1018.77 1019.10 1019.10 1019.24 1019.73 1020.16 1020.52 1020.87 1021.14 1021.83
1010.38 1009.26 1008.42 1007.94 1008.01 1008.61 1009.15 1009.97 1010.44 1011.21 1011.90 1012.48 1013.25 1013.72 1014.14 1014.77 1015.05 1015.37 1015.59 1015.55 1015.63 1015.89 1015.97 1015.97 1016.02 1016.22 1016.62 1016.87 1017.38 1017.95 1018.38 1018.87 1019.29 1019.69 1019.95 1020.21 1020.64 1020.85 1021.16 1021.40 1021.74 1022.03 1022.30
1010.50 1009.94 1009.10 1008.55 1008.18 1008.38 1009.26 1009.71 1010.39 1011.06 1011.98 1012.67 1013.38 1013.83 1014.47 1014.97 1015.37 1015.70 1016.03 1015.92 1016.23 1016.49 1016.59 1016.63 1016.82 1017.06 1017.47 1017.74 1018.18 1018.65 1019.25 1019.67 1020.22 1020.52 1020.80 1021.11 1021.61 1021.98 1022.25 1022.64 1023.07 1023.49 1023.88
1010.71 1010.20 1009.22 1008.58 1008.42 1008.44 1009.06 1009.82 1010.42 1010.93 1011.98 1012.77 1013.36 1014.00 1014.63 1015.19 1015.62 1016.04 1016.44 1016.43 1016.81 1017.20 1017.28 1017.45 1017.66 1017.92 1018.34 1018.60 1018.93 1019.23 1019.88 1020.61 1021.18 1021.43 1021.64 1021.92 1022.16 1022.42 1022.85 1023.20 1023.77 1024.20 1024.47
1010.52 1009.93 1009.27 1008.42 1008.00 1008.63 1008.92 1009.75 1010.44 1010.98 1012.08 1012.83 1013.48 1014.17 1014.78 1015.43 1015.85 1016.37 1016.74 1017.02 1017.26 1017.65 1017.87 1018.12 1018.48 1018.76 1019.06 1019.39 1019.69 1020.05 1020.73 1021.47 1022.01 1022.18 1022.16 1022.06 1022.42 1022.79 1023.38 1023.86 1024.39 1024.86 1025.27
1008.96 1009.05 1008.57 1008.33 1007.67 1008.23 1008.87 1009.74 1010.41 1011.15 1012.06 1012.94 1013.71 1014.46 1015.09 1015.72 1016.16 1016.64 1017.06 1017.29 1017.66 1018.05 1018.46 1018.85 1019.30 1019.51 1019.75 1020.18 1020.42 1020.85 1021.35 1021.98 1022.54 1022.92 1023.06 1023.04 1022.94 1023.24 1023.89 1024.43 1024.66 1025.00 1025.52
1008.55 1008.42 1008.22 1008.00 1007.70 1008.03 1008.83 1009.79 1010.52 1011.30 1012.09 1013.07 1013.98 1014.74 1015.35 1015.98 1016.47 1016.81 1017.50 1017.77 1018.07 1018.50 1019.11 1019.63 1020.09 1020.35 1020.41 1020.66 1021.00 1021.42 1021.95 1022.60 1022.91 1023.46 1023.62 1023.84 1023.88 1024.05 1024.31 1024.71 1024.79 1025.15 1025.81
1009.11 1008.90 1008.69 1008.62 1008.61 1008.62 1009.00 1009.81 1010.74 1011.47 1012.35 1013.33 1014.26 1015.00 1015.56 1016.27 1016.71 1017.07 1017.69 1018.15 1018.72 1019.04 1019.66 1020.23 1020.81 1021.27 1021.32 1021.39 1021.45 1022.04 1022.64 1023.16 1023.54 1023.80 1024.02 1024.33 1024.57 1024.88 1025.21 1025.46 1025.68 1026.08 1026.71
1009.83 1009.65 1009.15 1009.13 1009.10 1009.04 1009.37 1009.80 1010.77 1011.60 1012.42 1013.48 1014.40 1015.22 1015.76 1016.51 1016.98 1017.32 1017.80 1018.40 1019.04 1019.61 1020.10 1020.73 1021.42 1021.90 1022.23 1022.32 1022.47 1022.94 1023.43 1023.66 1024.04 1024.46 1025.14 1025.30 1025.52 1025.79 1026.26 1026.71 1026.95 1027.26 1027.56
1010.04 1010.07 1009.67 1009.56 1009.44 1009.23 1009.65 1010.30 1010.94 1011.70 1012.61 1013.54 1014.49 1015.38 1016.04 1016.60 1017.27 1017.68 1018.02 1018.70 1019.31 1019.54 1020.15 1021.02 1021.49 1021.89 1022.55 1022.95 1023.15 1023.41 1023.90 1024.31 1024.62 1025.25 1025.77 1026.18 1026.75 1027.02 1027.26 1027.59 1027.91 1028.17 1028.32
1010.51 1010.32 1010.08 1009.85 1009.74 1009.70 1010.06 1010.74 1011.26 1011.79 1012.51 1013.58 1014.57 1015.26 1016.04 1016.77 1017.55 1018.07 1018.70 1019.02 1019.38 1020.03 1020.55 1021.12 1021.41 1022.05 1022.43 1022.87 1023.29 1023.73 1024.09 1024.42 1024.83 1025.57 1026.44 1027.02 1027.41 1027.82 1028.13 1028.50 1028.78 1028.85 1028.98
Wind_Speed
10 8 9 10 9 10 14 13 12 9 10 6 5 3 4 3 3 4 6 4 3 3 6 4 4 5 5 4 4 4 8 4 4 4 3 5 5 5 3 2 4 3 3
8 11 8 9 13 14 17 13 13 10 8 7 4 4 4 2 3 3 4 5 3 4 6 6 5 5 4 5 4 6 3 3 2 3 2 2 1 2 2 2 3 4 2
11 9 7 10 12 16 18 16 14 10 8 8 5 4 4 3 2 2 3 4 6 6 6 6 5 5 4 4 5 5 5 4 2 3 4 3 3 3 1 1 2 3 2
2 3 6 8 13 14 14 15 14 12 9 10 7 6 4 4 3 4 4 4 4 5 6 6 6 5 4 6 5 4 3 5 7 2 1 2 3 4 2 0 1 2 1
6 7 3 9 7 9 11 10 10 10 9 9 8 6 4 3 3 2 4 3 2 8 7 6 5 5 4 6 8 7 6 3 5 5 3 1 2 2 3 3 3 1 2
7 7 8 10 11 9 9 10 11 7 8 8 8 7 7 4 4 4 4 4 3 4 5 4 4 4 4 6 7 8 8 6 4 4 3 4 4 4 4 2 2 4 2
6 8 9 12 11 12 10 10 12 8 8 8 7 6 6 5 6 5 5 5 3 2 4 3 4 4 4 5 5 6 6 6 5 6 3 1 1 2 3 3 2 2 2
6 7 10 9 10 10 11 9 9 8 8 9 8 6 7 4 5 5 4 4 3 3 4 4 4 5 5 5 5 4 5 6 5 7 5 3 3 3 3 3 4 2 1
7 8 8 10 11 10 8 11 11 10 8 8 6 6 5 6 5 5 4 3 2 3 4 4 3 3 5 6 6 4 6 6 5 6 6 5 2 2 4 3 3 3 3
6 8 9 9 9 9 8 9 8 8 8 8 6 5 4 4 5 5 5 5 4 4 4 3 3 3 3 5 6 4 5 6 4 4 6 5 4 4 3 5 4 2 3
6 4 7 10 10 8 9 7 7 8 7 8 6 5 7 7 7 6 6 5 4 4 1 2 2 4 4 4 5 6 7 8 6 5 6 6 6 5 4 5 4 3 3
7 5 10 10 10 10 9 7 8 7 8 8 6 7 7 7 7 6 5 4 4 4 2 0 0 1 4 4 4 5 6 6 6 7 7 7 6 7 6 6 6 6 3
8 5 10 9 8 9 8 7 6 9 9 8 7 7 7 6 5 5 4 4 3 2 1 1 2 2 4 4 3 4 5 6 4 3 4 4 4 5 7 7 6 4 3
8 6 8 9 10 9 8 7 9 8 8 8 6 7 7 6 6 5 3 3 2 3 2 2 3 3 4 5 7 8 8 8 7 5 5 5 6 8 9 8 7 5 4
12 5 7 9 9 10 9 9 8 7 9 9 8 7 7 7 6 5 3 1 4 5 4 5 5 6 6 5 9 10 10 10 9 7 6 7 10 15 12 6 5 6 5
18 6 6 8 10 11 11 9 10 9 10 8 8 7 8 7 6 5 3 4 7 6 6 6 8 9 7 18 19 13 10 10 11 11 10 10 16 18 20 17 13 8 4
14 11 6 6 7 13 13 11 10 11 9 9 8 8 8 7 6 6 5 7 8 7 7 8 9 11 12 23 23 20 11 10 11 10 10 10 10 14 13 20 22 21 18
13 10 7 4 2 11 10 12 11 12 10 9 8 8 8 8 7 7 5 8 8 8 8 10 10 11 12 23 23 22 13 12 11 10 10 11 11 11 11 11 11 10 9
10 10 10 5 4 10 12 11 11 14 11 9 8 10 9 8 8 8 6 8 9 8 8 9 10 11 12 23 23 17 12 12 12 9 9 8 8 17 17 11 11 9 7
6 7 9 8 3 8 14 12 12 13 11 9 10 10 9 9 9 8 8 8 9 9 9 11 11 17 13 18 21 16 9 11 8 7 7 14 10 17 17 9 8 8 4
2 5 4 5 6 10 13 13 12 12 12 11 11 10 9 9 9 9 8 9 11 11 11 10 9 9 11 13 19 18 9 8 7 6 4 6 17 16 16 13 6 5 4
7 6 4 7 4 12 13 13 12 13 14 12 11 11 10 8 8 11 8 10 11 12 10 10 8 6 8 15 18 19 17 14 9 6 4 8 17 18 17 9 13 14 10
7 5 4 4 4 6 11 13 13 14 14 13 12 11 10 9 9 10 9 8 8 9 8 8 8 7 5 9 20 20 21 18 9 6 14 19 18 17 14 16 17 14 6
6 6 4 3 4 3 9 13 15 14 14 14 12 10 11 10 8 6 7 7 7 7 8 8 7 5 5 6 5 8 10 17 11 14 10 11 13 14 11 9 8 6 6
5 5 4 1 1 3 9 13 14 14 14 13 12 11 9 10 7 4 6 6 4 7 9 6 7 8 6 4 10 10 7 5 10 9 5 4 4 5 4 5 6 5 5
5 6 6 1 3 4 12 12 13 14 15 13 10 9 9 8 6 6 6 7 13 15 14 14 9 5 11 18 18 17 17 17 14 5 4 3 4 5 4 5 4 4 6
Wind_Direction
251 251 223 197 169 145 150 153 143 154 136 136 126 117 146 146 126 144 142 147 154 172 157 147 145 139 131 164 140 102 124 103 118 97 70 48 16 46 81 57 107 104 94
260 259 220 194 163 157 152 151 152 151 149 145 123 134 144 201 158 162 165 166 182 142 144 146 141 142 132 133 141 140 123 87 180 124 112 158 34 63 22 87 112 115 66
242 246 220 192 163 157 158 158 153 145 144 127 114 85 89 67 77 122 159 196 186 176 144 154 154 154 134 156 158 144 137 135 175 175 137 129 180 104 338 143 147 118 161
330 267 221 164 180 161 153 149 146 142 139 130 124 133 144 147 192 169 179 191 179 175 152 166 165 167 150 148 154 159 156 133 172 128 68 69 143 141 157 348 199 204 218
60 27 56 163 141 133 132 130 123 128 128 124 129 134 141 175 172 139 154 186 195 169 148 146 156 155 165 167 163 165 174 144 157 166 151 131 86 79 130 170 186 175 224
71 69 73 80 91 91 96 106 105 98 108 112 119 143 161 164 134 129 131 115 86 92 117 137 159 190 184 160 169 174 176 174 166 175 166 170 165 172 147 142 141 188 178
80 107 102 105 96 93 94 100 106 106 110 115 110 126 138 136 143 142 135 135 120 115 146 160 189 209 181 155 155 173 164 160 169 171 173 9 27 99 99 105 150 145 120
108 108 122 107 103 98 99 98 99 96 93 95 93 91 103 106 102 111 123 132 140 155 161 222 205 176 150 150 148 141 149 162 168 161 164 175 181 146 154 150 136 120 108
134 125 113 112 109 104 101 101 102 107 104 102 102 99 108 113 125 118 118 143 134 147 166 191 203 169 152 159 154 148 162 169 174 183 161 171 167 162 147 122 137 157 148
119 124 121 118 102 108 110 92 105 105 107 100 105 150 123 115 100 96 95 96 86 88 103 142 162 187 190 165 164 164 165 171 179 159 169 175 164 170 151 146 125 108 122
108 122 127 117 111 114 102 109 119 123 113 122 123 111 90 79 78 80 65 64 77 78 57 32 51 179 198 187 173 178 168 176 166 159 171 173 165 172 164 145 125 115 103
319 81 126 123 131 119 109 124 137 135 125 122 110 94 94 91 78 76 67 67 75 67 99 92 251 258 203 178 192 184 183 162 156 167 177 184 179 184 153 127 122 115 96
268 148 125 131 142 130 137 152 126 126 122 115 105 95 89 91 91 79 71 77 84 45 359 119 197 189 189 187 144 152 100 87 78 92 145 140 133 115 125 117 111 100 80
269 169 141 157 146 142 152 143 137 136 128 117 126 119 115 114 106 96 94 94 126 129 98 122 178 175 107 97 102 92 90 85 80 75 86 112 125 125 117 103 103 109 109
284 208 171 174 152 147 140 132 135 130 128 127 123 118 113 101 98 97 84 115 86 65 65 72 83 85 100 108 103 99 95 95 87 74 75 94 109 108 99 104 98 99 88
327 220 194 167 165 161 154 149 140 125 124 118 112 111 103 102 102 90 89 87 71 59 75 78 87 81 87 107 104 100 94 88 82 75 61 72 87 93 93 91 91 101 116
312 1 255 214 144 166 156 154 141 130 122 121 118 123 111 110 103 92 92 89 78 80 77 83 90 94 100 102 99 97 87 87 84 85 84 82 79 79 79 75 75 72 83
310 334 329 288 190 145 155 144 139 129 128 125 133 123 119 111 105 96 93 90 82 82 83 80 81 91 99 105 104 97 94 86 77 79 90 92 90 91 93 89 81 76 72
279 301 306 287 198 153 150 148 142 128 131 136 142 127 123 117 113 102 102 93 95 88 84 86 91 95 99 107 103 96 86 83 77 72 77 96 103 109 106 94 92 78 69
219 258 283 303 274 159 149 146 144 130 136 136 127 125 122 121 116 111 108 99 95 95 93 91 92 105 106 103 105 101 98 90 83 61 56 95 117 109 110 104 107 102 112
147 254 316 290 250 151 150 147 143 137 133 125 120 119 120 121 120 112 116 113 110 105 97 92 88 91 102 108 108 106 101 104 98 86 66 80 94 117 110 111 108 127 134
352 335 13 350 64 146 146 147 142 135 128 124 120 123 125 128 125 117 119 119 115 108 101 94 84 59 101 113 112 110 108 110 104 98 78 91 97 97 91 79 88 82 78
336 342 42 32 36 137 146 141 140 133 129 125 125 129 127 132 132 125 134 121 118 118 111 107 100 87 57 104 114 114 113 108 95 99 106 99 92 81 77 85 79 73 69
353 329 39 44 37 104 152 141 140 136 132 131 132 134 134 136 137 126 130 130 127 128 122 123 113 103 89 88 86 108 117 116 105 103 101 104 97 90 87 69 57 69 75
358 344 344 315 110 91 136 143 141 139 135 134 138 140 142 142 131 88 129 136 120 145 140 139 135 134 129 137 129 126 119 119 121 103 78 77 69 74 66 58 61 64 61
339 333 343 264 163 103 141 142 145 144 140 139 147 152 151 129 119 113 85 83 131 130 128 132 135 129 137 140 135 134 134 132 126 86 102 97 97 100 98 89 79 58 72